| time (UTC) | temp C | wind direction | speed KPH | gust KPH | rain 1hr cm | rain 24hr cm | rain mn cm | humidity % | barometer mb |
| 20260503180414 | 16 | 359 | 1.6 | 12.9 | 0.00 | 0.00 | 0.00 | 75 | 1014.2 |
| 20260503175414 | 16 | 359 | 3.2 | 17.7 | 0.00 | 0.00 | 0.00 | 74 | 1014.2 |
| 20260503174435 | 16 | 359 | 4.8 | 14.5 | 0.00 | 0.00 | 0.00 | 76 | 1014.0 |
| 20260503173429 | 15 | 359 | 3.2 | 12.9 | 0.00 | 0.00 | 0.00 | 80 | 1014.3 |
| 20260503172421 | 15 | 359 | 3.2 | 8.0 | 0.00 | 0.00 | 0.00 | 79 | 1014.2 |
| 20260503171422 | 15 | 359 | 1.6 | 8.0 | 0.00 | 0.00 | 0.00 | 80 | 1014.2 |
| 20260503170421 | 14 | 359 | 3.2 | 8.0 | 0.00 | 0.00 | 0.00 | 81 | 1014.1 |
| 20260503150427 | 12 | 359 | 3.2 | 6.4 | 0.00 | 0.00 | 0.00 | 83 | 1013.4 |
| 20260503130417 | 11 | 359 | 1.6 | 6.4 | 0.00 | 0.00 | 0.00 | 84 | 1011.9 |
| 20260503110422 | 12 | 359 | 1.6 | 6.4 | 0.00 | 0.00 | 0.00 | 85 | 1012.0 |
| 20260503090437 | 12 | 359 | 1.6 | 4.8 | 0.00 | 0.00 | 0.00 | 85 | 1012.1 |
| 20260503081431 | 12 | 359 | 0.0 | 3.2 | 0.00 | 0.00 | 0.00 | 84 | 1012.7 |
| 20260503080429 | 12 | 359 | 1.6 | 4.8 | 0.00 | 0.00 | 0.00 | 84 | 1012.9 |
| 20260503072417 | 12 | 359 | 1.6 | 4.8 | 0.00 | 0.00 | 0.00 | 85 | 1012.6 |
| 20260503071426 | 12 | 359 | 1.6 | 4.8 | 0.00 | 0.00 | 0.00 | 85 | 1012.7 |
| 20260503070428 | 12 | 359 | 1.6 | 4.8 | 0.00 | 0.00 | 0.00 | 85 | 1012.6 |
| 20260503054418 | 12 | 359 | 1.6 | 6.4 | 0.00 | 0.00 | 0.00 | 84 | 1013.1 |
| 20260503053438 | 12 | 359 | 0.0 | 4.8 | 0.00 | 0.00 | 0.00 | 84 | 1013.1 |
| 20260503052417 | 12 | 359 | 1.6 | 4.8 | 0.00 | 0.00 | 0.00 | 84 | 1013.1 |
| 20260503051440 | 12 | 359 | 0.0 | 3.2 | 0.00 | 0.00 | 0.00 | 84 | 1013.0 |
| 20260503050436 | 12 | 359 | 0.0 | 3.2 | 0.00 | 0.00 | 0.00 | 84 | 1013.2 |
| 20260503045430 | 12 | 359 | 1.6 | 4.8 | 0.00 | 0.00 | 0.00 | 84 | 1013.2 |
| 20260503044423 | 12 | 359 | 3.2 | 4.8 | 0.00 | 0.00 | 0.00 | 84 | 1013.1 |
| 20260503043422 | 12 | 359 | 0.0 | 4.8 | 0.00 | 0.00 | 0.00 | 84 | 1013.1 |
| 20260503042415 | 12 | 359 | 0.0 | 4.8 | 0.00 | 0.00 | 0.00 | 84 | 1013.0 |
| 20260503041415 | 12 | 359 | 0.0 | 3.2 | 0.00 | 0.00 | 0.00 | 83 | 1012.9 |
| 20260503040413 | 12 | 359 | 1.6 | 4.8 | 0.00 | 0.00 | 0.00 | 83 | 1012.8 |
| 20260503035431 | 12 | 359 | 1.6 | 4.8 | 0.00 | 0.00 | 0.00 | 83 | 1012.8 |
| 20260503034427 | 12 | 359 | 1.6 | 6.4 | 0.00 | 0.00 | 0.00 | 83 | 1012.8 |
| 20260503033452 | 12 | 359 | 1.6 | 6.4 | 0.00 | 0.00 | 0.00 | 83 | 1012.7 |
| 20260503032431 | 12 | 359 | 3.2 | 6.4 | 0.00 | 0.00 | 0.00 | 83 | 1012.5 |
| 20260503031421 | 13 | 359 | 1.6 | 6.4 | 0.00 | 0.00 | 0.00 | 82 | 1012.5 |
| 20260503030422 | 13 | 359 | 0.0 | 6.4 | 0.00 | 0.00 | 0.00 | 82 | 1012.4 |
| 20260503025420 | 13 | 359 | 0.0 | 9.7 | 0.00 | 0.00 | 0.00 | 81 | 1012.3 |
| 20260503024415 | 13 | 359 | 1.6 | 6.4 | 0.00 | 0.00 | 0.00 | 81 | 1012.4 |
| 20260503023436 | 13 | 359 | 1.6 | 6.4 | 0.00 | 0.00 | 0.00 | 80 | 1012.2 |
| 20260503022436 | 13 | 359 | 1.6 | 6.4 | 0.00 | 0.00 | 0.00 | 80 | 1012.3 |
| 20260503021417 | 13 | 359 | 1.6 | 8.0 | 0.00 | 0.00 | 0.00 | 80 | 1012.2 |
| 20260503020438 | 13 | 359 | 1.6 | 6.4 | 0.00 | 0.00 | 0.00 | 80 | 1012.2 |
| 20260503015438 | 13 | 359 | 1.6 | 16.1 | 0.00 | 0.00 | 0.00 | 79 | 1012.2 |
| 20260503014419 | 14 | 359 | 1.6 | 9.7 | 0.00 | 0.00 | 0.00 | 79 | 1012.3 |
| 20260503013415 | 14 | 359 | 3.2 | 9.7 | 0.00 | 0.00 | 0.00 | 78 | 1012.4 |
| 20260503012417 | 15 | 359 | 1.6 | 12.9 | 0.00 | 0.00 | 0.00 | 77 | 1012.5 |
| 20260503011457 | 15 | 359 | 3.2 | 9.7 | 0.00 | 0.00 | 0.00 | 77 | 1012.4 |
| 20260503010454 | 15 | 359 | 3.2 | 12.9 | 0.00 | 0.00 | 0.00 | 76 | 1012.4 |
| 20260503005427 | 15 | 359 | 4.8 | 9.7 | 0.00 | 0.00 | 0.00 | 76 | 1012.5 |
| 20260503004427 | 15 | 359 | 4.8 | 17.7 | 0.00 | 0.00 | 0.00 | 75 | 1012.5 |
| 20260503003426 | 15 | 359 | 3.2 | 12.9 | 0.00 | 0.00 | 0.00 | 75 | 1012.5 |
| 20260503002424 | 15 | 359 | 3.2 | 14.5 | 0.00 | 0.00 | 0.00 | 75 | 1012.5 |
| 20260503001416 | 15 | 359 | 4.8 | 12.9 | 0.00 | 0.00 | 0.00 | 73 | 1012.5 |
| 20260503000418 | 15 | 359 | 4.8 | 17.7 | 0.00 | 0.00 | 0.00 | 74 | 1012.5 |
| 20260502235417 | 15 | 359 | 4.8 | 16.1 | 0.00 | 0.00 | 0.00 | 74 | 1012.7 |
| 20260502234442 | 16 | 359 | 3.2 | 14.5 | 0.00 | 0.00 | 0.00 | 73 | 1012.7 |
| 20260502233440 | 16 | 359 | 4.8 | 14.5 | 0.00 | 0.00 | 0.00 | 73 | 1012.7 |
| 20260502232443 | 16 | 359 | 4.8 | 12.9 | 0.00 | 0.00 | 0.00 | 74 | 1012.8 |
| 20260502231415 | 16 | 359 | 3.2 | 12.9 | 0.00 | 0.00 | 0.00 | 74 | 1012.9 |
| 20260502230416 | 16 | 359 | 3.2 | 9.7 | 0.00 | 0.00 | 0.00 | 76 | 1013.2 |
| 20260502225439 | 15 | 359 | 3.2 | 14.5 | 0.00 | 0.00 | 0.00 | 77 | 1013.3 |
| 20260502224415 | 15 | 359 | 3.2 | 19.3 | 0.00 | 0.00 | 0.00 | 79 | 1013.5 |
| 20260502223415 | 15 | 359 | 4.8 | 14.5 | 0.00 | 0.00 | 0.00 | 78 | 1013.7 |
| 20260502222431 | 15 | 359 | 3.2 | 14.5 | 0.00 | 0.00 | 0.00 | 77 | 1013.9 |
| 20260502221425 | 15 | 359 | 3.2 | 17.7 | 0.00 | 0.00 | 0.00 | 78 | 1014.0 |
| 20260502215421 | 15 | 359 | 3.2 | 19.3 | 0.00 | 0.00 | 0.00 | 77 | 1014.2 |
| 20260502214421 | 15 | 359 | 6.4 | 16.1 | 0.00 | 0.00 | 0.00 | 75 | 1014.3 |
| 20260502213420 | 15 | 359 | 4.8 | 17.7 | 0.00 | 0.00 | 0.00 | 75 | 1014.2 |
| 20260502212422 | 16 | 359 | 6.4 | 20.9 | 0.00 | 0.00 | 0.00 | 74 | 1014.3 |
| 20260502211423 | 16 | 359 | 4.8 | 17.7 | 0.00 | 0.00 | 0.00 | 75 | 1014.3 |
| 20260502210415 | 16 | 359 | 6.4 | 16.1 | 0.00 | 0.00 | 0.00 | 75 | 1014.4 |
| 20260502205430 | 16 | 359 | 6.4 | 17.7 | 0.00 | 0.00 | 0.00 | 75 | 1014.5 |
| 20260502204431 | 16 | 359 | 8.0 | 19.3 | 0.00 | 0.00 | 0.00 | 75 | 1014.7 |
| 20260502203431 | 16 | 359 | 9.7 | 19.3 | 0.00 | 0.00 | 0.00 | 75 | 1014.9 |
| 20260502202412 | 15 | 359 | 4.8 | 16.1 | 0.00 | 0.00 | 0.00 | 79 | 1014.7 |
| 20260502201428 | 15 | 359 | 4.8 | 14.5 | 0.00 | 0.00 | 0.00 | 79 | 1014.8 |
| 20260502200429 | 15 | 359 | 4.8 | 14.5 | 0.00 | 0.00 | 0.00 | 79 | 1015.0 |
| 20260502195422 | 15 | 359 | 6.4 | 19.3 | 0.00 | 0.00 | 0.00 | 80 | 1014.9 |
| 20260502194416 | 14 | 359 | 3.2 | 12.9 | 0.00 | 0.00 | 0.00 | 81 | 1015.1 |
| 20260502193416 | 14 | 359 | 4.8 | 19.3 | 0.00 | 0.00 | 0.00 | 82 | 1015.0 |
| 20260502192417 | 13 | 359 | 4.8 | 16.1 | 0.00 | 0.00 | 0.00 | 83 | 1015.0 |
| 20260502191417 | 13 | 359 | 8.0 | 16.1 | 0.00 | 0.00 | 0.00 | 83 | 1015.0 |
| 20260502190418 | 13 | 359 | 6.4 | 19.3 | 0.00 | 0.00 | 0.00 | 83 | 1015.1 |
| 20260502185431 | 13 | 359 | 4.8 | 16.1 | 0.00 | 0.00 | 0.00 | 84 | 1015.1 |
| 20260502184427 | 13 | 359 | 8.0 | 19.3 | 0.00 | 0.00 | 0.00 | 84 | 1015.1 |
| 20260502183418 | 13 | 359 | 6.4 | 19.3 | 0.00 | 0.00 | 0.00 | 84 | 1015.1 |
| 20260502182417 | 13 | 359 | 4.8 | 16.1 | 0.00 | 0.00 | 0.00 | 85 | 1015.1 |
| 20260502181447 | 12 | 359 | 3.2 | 16.1 | 0.00 | 0.00 | 0.00 | 86 | 1015.2 |